Regional Weather Roundup
Issued by NWS

Home | Current Version | Previous Version | Text Only | Print | Product List | Glossary On
Versions: 1 2 3 4 5 6 7 8 9 10 11 12 13 14 15 16 17 18 19 20 21 22 23 24 25 26 27 28 29 30 31 32 33 34 35 36 37 38 39 40 41 42 43 44 45 46 47 48 49 50
000
ASUS43 KDTX 300310
RWRMI
MICHIGAN HOURLY REGIONAL WEATHER ROUNDUP
NATIONAL WEATHER SERVICE DETROIT/PONTIAC MI
1000 PM EST THU JAN 29 2015

NOTE: "FAIR" INDICATES FEW OR NO CLOUDS BELOW 12,000 FEET WITH NO
SIGNIFICANT WEATHER AND/OR OBSTRUCTION TO VISIBILITY.

MIZ047>049-052>055-059>063-066>070-074>076-081>083-300400-
SOUTHEAST LOWER MICHIGAN

CITY           SKY/WX    TMP DP  RH WIND       PRES   REMARKS
ADRIAN         CLOUDY    32  22  66 N15G26    30.06R
ALMA           CLOUDY    26  17  68 NW18G29   30.09R
ANN ARBOR      CLOUDY    31  21  66 NW15G25   30.03R
BAD AXE        FLURRIES  28  22  81 NW17G28   29.96R
DETROIT CITY   CLOUDY    33  23  66 NW14G24   30.00R
DETROIT        CLOUDY    31  23  72 NW17G23   30.02R
FLINT          CLOUDY    30  20  66 NW13      30.02R
GROSSE ILE     CLOUDY    34  27  75 NW12      30.00R
HILLSDALE      FLURRIES  31  27  84 NW14      30.05R
HOWELL         CLOUDY    29  20  71 NW16G23   30.03R

CITY           SKY/WX    TMP DP  RH WIND       PRES   REMARKS
JACKSON        CLOUDY    30  22  72 NW8G20    30.05R
LAMBERTVILLE   CLOUDY    34  28  80 NW14G20   30.05R
LANSING        CLOUDY    29  19  66 NW15G25   30.07R
LAPEER         NOT AVBL
MASON          CLOUDY    29  19  67 N17G29    30.05R
MONROE         CLOUDY    32  27  80 NW15G29   30.02R
MT. CLEMENS    CLOUDY    32  25  74 NW22G29   29.97R
PONTIAC        CLOUDY    28  20  71 NW17G33   29.99R
PORT HOPE        N/A     29  21  72 NW20G30   29.93R
PORT HURON     CLOUDY    30  27  86 NW14G23   29.96R
TRI CITIES     CLOUDY    28  19  69 NW22G32   30.04R
YPSILANTI      CLOUDY    34  22  61 NW22G28   30.02R
$$
MIZ043>046-050>051-056>058-064>065-071>073-077>080-300400-
SOUTHWEST LOWER MICHIGAN

CITY           SKY/WX    TMP DP  RH WIND       PRES   REMARKS
BATTLE CREEK   LGT SNOW  32  27  81 NW12      30.08R
BENTON HARBOR  CLOUDY    33  25  72 NW9G22    30.15R
BIG RAPIDS     FLURRIES  23  16  74 N20G33    30.12R
COLDWATER      CLOUDY    31  27  84 NW12      30.08R
HOLLAND        CLOUDY    32  22  66 N10G20    30.14R
GRAND RAPIDS   FLURRIES  29  22  75 NW15      30.11R
KALAMAZOO      FLURRIES  32  26  78 NW14      30.10R
MARSHALL       FLURRIES  30  26  86 NW6       30.06R
MUSKEGON       LGT SNOW  29  22  75 N24G33    30.18R
$$
MIZ016>042-300400-
NORTHERN LOWER MICHIGAN

CITY           SKY/WX    TMP DP  RH WIND       PRES   REMARKS
ALPENA         LGT SNOW  21  16  81 NW15G24   30.02R
BEAVER ISLAND  LGT SNOW  18  12  79 NW16G24   30.17R
BELLAIRE       FLURRIES  21  13  71 NW8G20    30.16R
CADILLAC       LGT SNOW  21  15  78 NW16G23   30.08R
CHARLEVOIX     LGT SNOW  19  14  80 N22G29    30.18R
FRANKFORT      CLOUDY    23  15  74 N17G26    30.20R
GAYLORD        LGT SNOW  16  10  77 NW13G31   30.04R
GRAYLING       LGT SNOW  18  13  80 NW17G25   30.07R
HARBOR SPRINGS CLOUDY    17  10  72 NW15G26   30.12R HAZE
HOUGHTON LAKE  LGT SNOW  20  12  71 NW18G38   30.05R
MANISTEE       CLOUDY    23  12  63 N16G31    30.20R
OSCODA         FLURRIES  25  19  76 NW18G30   29.97R
PELLSTON       LGT SNOW  15   9  76 N22G36    30.12R WCI  -3
TRAVERSE CITY  FLURRIES  24  15  68 N16G29    30.15R
$$
MIZ007>008-015-300400-
EASTERN UPPER MICHIGAN

CITY           SKY/WX    TMP DP  RH WIND       PRES   REMARKS
KINROSS        PTCLDY    10   7  85 NW21G30   30.09R WCI  -9
MACKINAC ISLAN LGT SNOW  15   9  76 NW25G36   30.10R WCI  -4
NEWBERRY       LGT SNOW  13  10  87 N15G25    30.16R WCI  -2
S. S. MARIE    CLEAR      9  -1  64 NW14G22   30.13R WCI  -7
$$
MIZ004>006-011>014-085-300400-
CENTRAL UPPER MICHIGAN

CITY           SKY/WX    TMP DP  RH WIND       PRES   REMARKS
MANISTIQUE     LGT SNOW  18  15  88 N14G24    30.20R
ESCANABA       CLOUDY    18   9  68 N14G23    30.27R
MENOMINEE      PTCLDY    19   9  63 N10       30.28R
SAWYER-GWINN   LGT SNOW  14   9  79 N16G22    30.23R WCI  -2
$$
MIZ001>003-009>011-084-300400-
WESTERN UPPER MICHIGAN

CITY           SKY/WX    TMP DP  RH WIND       PRES   REMARKS
IRON MOUNTAIN  CLOUDY    17   6  62 N17G24    30.25R
HOUGHTON       LGT SNOW  13   6  74 N17G28    30.32R WCI  -4
COPPER HARBOR    N/A     16   9  74 NE25G36   30.34R WCI  -3
IRONWOOD       CLOUDY    16   9  73 N15       30.34R
$$

ABBREVIATIONS USED IN REMARKS
   TC - TEMPERATURE IN CELSIUS
  WCI - WIND CHILL INDEX
   HX - HEAT INDEX
  VSB - VISIBILITY



USA.gov is the U.S. government's official web portal to all federal, state and local government web resources and services.